User: anonymous   Login
Location: Byszew
(52.1813°N, 19.2693°E)
Time: 18:55:46
(UTC+00:00)
Language:

Cosmos 990 Rocket - Orbit

View from above orbital plane
View from above orbital plane
View from above satellite
View from above satellite

Ground track
Ground track

The orbit data is extracted from the following two-line orbital elements,

1 10677U 78019B   21333.32351850  .00000083  00000-0  34716-4 0  9991
2 10677  74.0364 176.6089 0015864 214.0266 145.9873 14.40213029296278
Epoch (UTC): 29 November 2021 07:45:51
Eccentricity: 0.0015864
inclination: 74.0364°
perigee height: 746 km
apogee height: 769 km
right ascension of ascending node: 176.6089°
argument of perigee: 214.0266°
revolutions per day: 14.40213029
mean anomaly at epoch: 145.9873°
orbit number at epoch: 29627

The dashed part of the orbit path shows where the satellite is in the earth's shadow,  

DLR